Regional Weather Roundup
Issued by NWS

Home | Current Version | Previous Version | Graphics & Text | Print | Product List | Glossary On
Versions: 1 2 3 4 5 6 7 8 9 10 11 12 13 14 15 16 17 18 19 20 21 22 23 24 25 26 27
000
ASUS45 KBOU 240407
RWRCO

WEATHER ROUNDUP FOR COLORADO
NATIONAL WEATHER SERVICE DENVER/BOULDER CO
1000 PM MDT THU OCT 23 2014

NOTE: "FAIR" INDICATES FEW OR NO CLOUDS BELOW 12000 FEET WITH NO
SIGNIFICANT WEATHER AND/OR OBSTRUCTIONS TO VISIBILITY.

COZ001>005-013-030-031-240500-
...NORTHWEST COLORADO...

CITY           SKY/WX    TMP DP  RH WIND       PRES   REMARKS
CRAIG          PTCLDY    42  34  73 SE5       30.23R
HAYDEN         PTCLDY    50  28  43 E6        30.24S
MEEKER         PTCLDY    55  34  45 W8        30.25R
MOUNT WERNER   NOT AVBL
STEAMBOAT SPGS PTCLDY    46  32  58 CALM      30.26S
WALDEN         MOCLDY    43  25  49 SE10      30.29S
$$

COZ006>008-011-240500-
...WEST CENTRAL VALLEYS...

CITY           SKY/WX    TMP DP  RH WIND       PRES   REMARKS
GRAND JUNCTION PTCLDY    52  37  56 E6        30.20S
MONTROSE       PTCLDY    50  37  61 SE8       30.28R
EAGLE          NOT AVBL
RIFLE          PTCLDY    46  39  76 S3        30.25R
DELTA          PTCLDY    54  37  52 NE6       30.24R
NUCLA          PTCLDY    52  32  46 E10       30.31S
$$

COZ017>023-064>068-240500-
...SOUTHWEST COLORADO...

CITY           SKY/WX    TMP DP  RH WIND       PRES   REMARKS
DURANGO        CLEAR     46  37  71 N3        30.33R
CORTEZ         CLEAR     44  32  62 E5        30.30R
PAGOSA SPRINGS CLEAR     45  36  72 CALM      30.39R
TELLURIDE      PTCLDY    45  32  60 SE6       30.47S
WOLF CREEK PAS CLEAR     36  32  87 SW8         N/A
$$

COZ009-010-012-014-032>034-037-058>063-240500-
...CENTRAL COLORADO...

CITY           SKY/WX    TMP DP  RH WIND       PRES   REMARKS
ASPEN          CLEAR     41  30  65 SW9       30.35S
BUENA VISTA    CLEAR     44  28  54 CALM      30.36R
COPPER MTN     CLEAR     41  21  45 S13G20    30.55S
BERTHOUD PASS  FAIR      34  32  93 W30G45    30.51F WCI  20
COTTONWOOD PAS CLEAR     50  21  32 W7        30.45S
GUNNISON       CLEAR     43  27  52 N5        30.40R
KREMMLING      PTCLDY    41  30  65 E7          N/A
LEADVILLE      CLEAR     38  23  55 NE7       30.43S
MONARCH PASS   CLEAR     36  25  64 SW16      30.66S
SALIDA         CLEAR     51  31  44 W9        30.41R
SUNLIGHT       CLEAR     41  28  60 CALM      30.51R
WILKERSON PASS NOT AVBL
$$

COZ069>075-240500-
...SAN LUIS VALLEY/SANGRE DE CRISTO MOUNTAINS...

CITY           SKY/WX    TMP DP  RH WIND       PRES   REMARKS
ALAMOSA        PTCLDY    40  29  64 NW3       30.35R
LA VETA PASS   CLEAR     45  28  53 S8        30.47R
SAGUACHE       CLEAR     43  28  56 W3        30.38R
$$

COZ035-036-038>040-240500-
...NORTHERN COLORADO FRONT RANGE...

CITY           SKY/WX    TMP DP  RH WIND       PRES   REMARKS
DENVER INTL AP MOCLDY    60  31  33 SW16      30.12F
DMNS CITY PARK   N/A     57  36  45 S3        30.13S
AURORA         MOCLDY    56  32  39 S13       30.15F
FRONT RANGE AP PTCLDY    54  36  50 S18       30.14S
ERIE MUNI ARPT MOCLDY    54  33  44 S5        30.11R
BOULDER MUN AP MOCLDY    59  32  36 W5        30.12R
CENTENNIAL     MOCLDY    55  32  41 S10       30.16S
BROOMFIELD     PTCLDY    63  27  25 SW6       30.15S
FORT COLLINS   MOCLDY    55  36  47 N5        30.12R
LONGMONT       MOCLDY    62  31  30 W6        30.12S
$$

COZ041-046-047-076>085-087-088-240500-
...PIKES PEAK/PALMER DIVIDE AND SOUTHERN FOOTHILLS...

CITY           SKY/WX    TMP DP  RH WIND       PRES   REMARKS
COLO. SPRINGS  PTCLDY    57  31  37 SE6       30.25R
A. F. ACADEMY  MOCLDY    43  31  63 NE6       30.25S
ELLICOTT       NOT AVBL
FALCON         PTCLDY    50  32  49 SW6       30.28S
FORT CARSON    PTCLDY    55  29  37 SW6       30.22R
LIMON          CLEAR     43  36  76 E5        30.18R
MONUMENT HILL  PTCLDY    46  32  57 S14       30.24F
TRINIDAD       CLEAR     51  33  50 W9        30.21S
$$

COZ042>045-048>051-090-091-240500-
...NORTHEAST COLORADO...

CITY           SKY/WX    TMP DP  RH WIND       PRES   REMARKS
GREELEY ARPT   MOCLDY    54  36  50 CALM      30.10S
AKRON          PTCLDY    58  35  42 SW14      30.09S
BURLINGTON     PTCLDY    56  46  69 SW13      30.11R
WRAY           PTCLDY    58  38  46 SW9       30.05S
STERLING       PTCLDY    48  37  66 SW7       30.05R
HOLYOKE        PTCLDY    52  36  54 SW6       30.04S
FORT MORGAN    PTCLDY    51  32  48 W6        30.09S
$$

COZ086-089-092>099-240500-
...SOUTHEAST COLORADO...

CITY           SKY/WX    TMP DP  RH WIND       PRES   REMARKS
PUEBLO         CLEAR     51  34  52 N9        30.15R
LA JUNTA       CLEAR     57  37  47 S8        30.12S
LAMAR          CLEAR     55  45  68 VRB3      30.09R
SPRINGFIELD      N/A     53  48  83 SW7       30.15S
$$



USA.gov is the U.S. government's official web portal to all federal, state and local government web resources and services.